Powrót do katalogu

ARIANE 5 R/B

AktywnyGTO
NORAD 27946·ROCKET BODY·🇫🇷 France

Wystrzelony Sep 27, 2003 z Guiana Space Centre

Loading…

TLE

Starzejące sięSource: Space-Track

Epoka: Sep 14, 2026, 14:33 UTC

1 27946U 03043B   26257.60661163 -.00000081  00000-0  99939-4 0  9992
2 27946   7.9414 300.2626 7172154 163.3144 245.8498  2.23568425187613

Śledź ARIANE 5 R/B w czasie rzeczywistym z AllMySat

Download on the App Store